Location: Village de las Huertas
(35.3014°N, 106.4095°W)
Time: 08:38:13
(UTC+00:00)

Cosmos 1140 Rocket - Pass Details

Date: 29 October 2020
Orbit: 744 x 767 km, 74.1° (Epoch: 04 December)

Event Time Altitude Azimuth Distance (km) Brightness Sun altitude
Rises 12:24:41 0° 197° (SSW) 3,175 6.6 -12.8°
Reaches altitude 10° 12:27:02 10° 197° (SSW) 2,253 5.8 -12.4°
Maximum altitude 12:32:08 86° 285° (WNW) 751 3.4 -11.3°
Drops below altitude 10° 12:37:16 10° 16° (NNE) 2,262 6.0 -10.3°
Sets 12:39:38 0° 17° (NNE) 3,190 6.8 -9.8°
